Regional Weather Roundup
Issued by NWS Sioux Falls, SD

Home | Current Version | Previous Version | Graphics & Text | Print | Product List | Glossary Off
Versions: 1 2 3 4 5 6 7 8 9 10 11 12 13 14 15 16 17 18 19 20 21 22 23 24 25 26 27 28 29 30 31 32 33 34 35 36 37 38 39 40 41 42 43 44 45 46 47 48 49 50

000
ASUS43 KFSD 280410
RWRFSD

WEATHER ROUNDUP FOR SE SOUTH DAKOTA/SW MINNESOTA/NW IOWA
NATIONAL WEATHER SERVICE SIOUX FALLS SD
1100 PM CDT SAT AUG 27 2016

NOTE: "FAIR" INDICATES FEW OR NO CLOUDS BELOW 12,000 FEET WITH NO
SIGNIFICANT WEATHER AND OR OBSTRUCTIONS TO VISIBILITY.


SDZ038>040-050-052>070-280500-
SOUTHEAST SOUTH DAKOTA

CITY           SKY/WX    TMP DP  RH WIND       PRES   REMARKS
BROOKINGS      CLEAR     65  62  90 SE8       30.03R
CHAMBERLAIN    CLEAR     72  66  82 SE10      29.94S
HURON          CLEAR     70  63  78 SE10      29.97R
MADISON        FAIR      66  66 100 S8        30.04R
MITCHELL       CLEAR     71  65  81 SE13      29.98R
SIOUX FALLS    PTCLDY    69  65  86 SE7       30.04R
WINNER         FAIR      75  63  66 S14       29.94R
YANKTON        CLEAR     66  63  88 E6        30.01R
$$

MNZ071-072-080-081-089-090-097-098-280500-
SOUTHWEST MINNESOTA

CITY           SKY/WX    TMP DP  RH WIND       PRES   REMARKS
FAIRMONT       CLEAR     61  60  97 CALM      30.08R
JACKSON          N/A     61  57  88 E5        30.09R
LUVERNE        CLEAR     61  59  94 CALM      30.06R
MARSHALL       CLEAR     64  62  93 SE6       30.05R
MONTEVIDEO     CLEAR     61  59  94 S5        30.06R
REDWOOD FALLS  CLEAR     63  61  93 E3        30.05R
TRACY          CLEAR     64  62  93 S3        30.07R
WINDOM         CLEAR     61  59  94 CALM      30.08R
WORTHINGTON    CLEAR     61  60  97 CALM      30.08R
$$

IAZ001>003-012>014-020>022-031-032-NEZ013-014-SDZ071-280500-
NORTHWEST IOWA

CITY           SKY/WX    TMP DP  RH WIND       PRES   REMARKS
CHEROKEE       CLEAR     64  63  99 CALM      30.06R
DENISON          N/A     66  64  94 SE5       30.05R
ESTHERVILLE    FOG       59  59 100 E3        30.08R VSB 3/4
LE MARS        CLEAR     66  64  94 CALM      30.05R
ORANGE CITY    CLEAR     66  64  94 E3        30.06R
SHELDON        CLEAR     61  61 100 E6        30.05R FOG
SIOUX CITY     CLEAR     68  64  87 E5        30.04R
SPENCER        FOG       60  58  92 E5        30.08R VSB 1/2
STORM LAKE     CLEAR     64  63  94 S7        30.07S
$$

ABBREVIATIONS USED IN REMARKS
   TC - TEMPERATURE IN CELSIUS
  WCI - WIND CHILL INDEX
   HX - HEAT INDEX
  VSB - VISIBILITY





USA.gov is the U.S. government's official web portal to all federal, state and local government web resources and services.